Location: Emblem
(62.4273°N, 6.4710°E)
Time: 20:49:48
(UTC+02:00)

Vanguard 2 - Pass Details

Date: 07 February 2023
Orbit: 553 x 2927 km, 32.9° (Epoch: 27 March)

Event Time Altitude Azimuth Distance (km) Brightness Sun altitude
Rises 23:01:08 0° 227° (SW) 5,530 11.8 -39.1°
Enters shadow 23:04:25 - 216° (SW) 5,091 11.5 -39.3°
Reaches altitude 10° 23:06:06 10° 210° (SSW) 4,920 - -39.4°
Maximum altitude 23:14:49 19° 174° (S) 4,722 - -39.9°
Drops below altitude 10° 23:24:48 10° 138° (SE) 5,731 - -40.5°
Sets 23:31:23 0° 124° (SE) 6,770 - -40.8°
